Regional Weather Roundup
Issued by NWS

Home | Current Version | Previous Version | Text Only | Print | Product List | Glossary Off
Versions: 1 2 3 4 5 6 7 8 9 10 11 12 13 14 15 16 17 18 19 20 21 22 23 24 25 26 27

000
ASUS45 KBOU 240510
RWRCO

WEATHER ROUNDUP FOR COLORADO
NATIONAL WEATHER SERVICE DENVER/BOULDER CO
1000 PM MST THU NOV 23 2017

NOTE: "FAIR" INDICATES FEW OR NO CLOUDS BELOW 12000 FEET WITH NO
SIGNIFICANT WEATHER AND/OR OBSTRUCTIONS TO VISIBILITY.

COZ001>005-013-030-031-240600-
...NORTHWEST COLORADO...

CITY           SKY/WX    TMP DP  RH WIND       PRES   REMARKS
CRAIG          FAIR      34  31  88 CALM      30.15F
HAYDEN         FAIR      37  32  82 SE7       30.18R
MEEKER         FAIR      38  31  76 NE5       30.18S
RABBIT EARS PA FAIR      32  32 100 W10G20    30.28F WCI  24
STEAMBOAT SPGS FAIR      37  33  87 CALM      30.18S
WALDEN         FAIR      46  28  49 SW17G26   30.17F
$$

COZ006>008-011-240600-
...WEST CENTRAL VALLEYS...

CITY           SKY/WX    TMP DP  RH WIND       PRES   REMARKS
GRAND JUNCTION FAIR      44  33  65 E5        30.16S
MONTROSE       FAIR      40  31  70 S9        30.22S
EAGLE          FAIR      35  29  78 CALM      30.23S
RIFLE          FAIR      38  34  85 CALM      30.19S
DELTA          FAIR      43  31  62 CALM      30.20S
NUCLA          FAIR      43  27  52 E8        30.23F
$$

COZ017>023-064>068-240600-
...SOUTHWEST COLORADO...

CITY           SKY/WX    TMP DP  RH WIND       PRES   REMARKS
DURANGO        FAIR      34  26  72 N7        30.25S WCI  28
CORTEZ         FAIR      33  26  75 E3        30.23S
PAGOSA SPRINGS FAIR      35  25  67 CALM      30.29S
TELLURIDE      FAIR      40  15  35 SE8       30.36S
WOLF CREEK PAS FAIR      34  18  51 SW7       30.50S WCI  28
$$

COZ009-010-012-014-032>034-037-058>063-240600-
...CENTRAL COLORADO...

CITY           SKY/WX    TMP DP  RH WIND       PRES   REMARKS
ASPEN          FAIR      33  26  75 SW7       30.23F WCI  27
BUENA VISTA    FAIR      33  22  64 CALM      30.18F
COPPER MTN     FAIR      34  19  55 MISG      30.38F
BERTHOUD PASS  FAIR      28  18  64 NW36G52   30.31F WCI  12
COTTONWOOD PAS FAIR      50  14  23 N7G20     30.26F
GUNNISON       FAIR      25  23  92 CALM      30.28S
KREMMLING      FAIR      34  30  86 CALM      30.22R
LEADVILLE      FAIR      39  14  36 VRB6G17   30.27F
MONARCH PASS   FAIR      32  21  64 W40G47    30.47S WCI  16
SALIDA         FAIR      46  24  41 N14       30.23F
SUNLIGHT       FAIR      34  16  47 SW15G24   30.38F WCI  24
WILKERSON PASS FAIR      36  10  35 W8G20     30.31F
$$

COZ069>075-240600-
...SAN LUIS VALLEY/SANGRE DE CRISTO MOUNTAINS...

CITY           SKY/WX    TMP DP  RH WIND       PRES   REMARKS
ALAMOSA        FAIR      29  22  75 W5        30.24F WCI  24
DEL NORTE      FAIR      31  21  67 W8        30.26F WCI  23
LA VETA PASS   FAIR      41  19  42 SW36G43     N/A
SAGUACHE       FAIR      32  21  64 N8        30.26S WCI  25
$$

COZ035-036-038>040-240600-
...NORTHERN COLORADO FRONT RANGE...

CITY           SKY/WX    TMP DP  RH WIND       PRES   REMARKS
DENVER INTL AP MOCLDY    61  22  22 SW20      29.92F
DMNS CITY PARK   N/A     53  23  31 SE8G15    29.93F
AURORA         MOCLDY    53  21  29 SW13      29.96F
FRONT RANGE AP FAIR      52  27  38 SW6       29.95F
ERIE MUNI ARPT FAIR      48  26  41 S5        29.96F
BOULDER MUN AP FAIR      54  27  35 CALM      29.91F
CENTENNIAL     MOCLDY    54  22  28 SW10      29.98F
BROOMFIELD     FAIR      63  23  22 W24G32    29.93F
FORT COLLINS   FAIR      44  34  67 NE9       29.90F
LONGMONT       FAIR      61  28  27 NW3       29.92F
$$

COZ041-046-047-076>085-087-088-240600-
...PIKES PEAK/PALMER DIVIDE AND SOUTHERN FOOTHILLS...

CITY           SKY/WX    TMP DP  RH WIND       PRES   REMARKS
COLO. SPRINGS  MOCLDY    51  28  41 W12       30.03F
A. F. ACADEMY  CLOUDY    56  17  21 NW6       30.03F
SCHRIEVER AFB  CLOUDY    51  27  40 CALM      30.02F
CHEYENNE MTN   MOCLDY    58  18  21 CALM      30.01F
ELLICOTT         N/A      1  32 100 CALM      30.00F
FALCON         FAIR      55  15  20 W15G21    30.06S
FORT CARSON    CLOUDY    48  31  50 NW8       30.00F
LIMON          FAIR      38  30  73 N9        29.96F
MONUMENT HILL  FAIR      45  21  39 SW7       30.07F
CANON CITY     FAIR      59  23  25 NW8       30.00F
WALSENBURG     FAIR      61  19  20 W15       30.05F
TRINIDAD       FAIR      52  30  43 W10       30.04F
$$

COZ042>045-048>051-090-091-240600-
...NORTHEAST COLORADO...

CITY           SKY/WX    TMP DP  RH WIND       PRES   REMARKS
GREELEY ARPT   FAIR      41  32  70 NE3       29.90F
AKRON          FAIR      52  25  35 SW13      29.89F
BURLINGTON     FAIR      48  35  60 SW12      29.90F
WRAY           NOT AVBL
YUMA           FAIR      45  30  57 W10       29.87F
STERLING       FAIR      45  32  61 SW7       29.86F
HOLYOKE        FAIR      48  32  53 W7        29.84F
FORT MORGAN    FAIR      45  27  48 W8        29.90F
$$

COZ086-089-092>099-240600-
...SOUTHEAST COLORADO...

CITY           SKY/WX    TMP DP  RH WIND       PRES   REMARKS
PUEBLO         FAIR      62  26  25 W14       29.95F
LA JUNTA       FAIR      48  33  56 W9        29.94F
LAMAR          FAIR      41  30  65 W5        29.90F
SPRINGFIELD      N/A     47  33  58 SW12      29.95F
$$




USA.gov is the U.S. government's official web portal to all federal, state and local government web resources and services.